Date String (YYYY-MM-DD hh:mm:ss) UTC,Instrument flags,Ambient pressure (hPa),Sample flow (lpm),Bypass flow (lpm),Sample temperature (°C),Ambient temperature (°C),ASC tube jacket temperature (°C),LED temperature (°C),Box temperature (°C),Sample RH (%),Span deviation,Mass concentration (μg/m³),Mass concentration (μg/m³),Mass concentration (μg/m³)
DateTimeUTC,F1_M11,P_M11,Q1_M11,Q2_M11,T1_M11,T2_M11,T3_M11,T4_M11,T5_M11,U1_M11,ZSPAN_M11,X2_M11,X0_M11,X1_M11
2021-11-25 03:00:00,,0835.5,5.01,0.00,22.1,21.5,00.0,31.1,23.9,16.3,0000.0,0005.31,0010.70,0004.80
2021-11-25 03:01:00,,0835.5,4.98,0.00,22.1,21.5,00.0,31.1,23.9,16.3,0000.0,0005.33,0010.63,0004.81
2021-11-25 03:02:00,,0835.5,5.01,0.00,22.1,21.4,00.0,31.1,23.8,16.3,0000.0,0005.33,0010.22,0004.80
2021-11-25 03:03:00,,0835.5,5.00,0.00,22.1,21.4,00.0,31.1,23.8,16.3,0000.0,0005.34,0010.23,0004.81
2021-11-25 03:04:00,,0835.5,5.00,0.00,22.0,21.3,00.0,31.1,23.7,16.3,0000.0,0005.34,0010.33,0004.79
2021-11-25 03:05:00,,0835.5,4.99,0.00,22.0,21.3,00.0,31.1,23.7,16.3,0000.0,0005.32,0010.13,0004.79
2021-11-25 03:06:00,,0835.5,5.01,0.00,22.0,21.3,00.0,31.1,23.7,16.3,0000.0,0005.34,0009.93,0004.80
2021-11-25 03:07:00,,0835.5,5.01,0.00,22.0,21.2,00.0,31.1,23.7,16.3,0000.0,0005.33,0009.52,0004.80
2021-11-25 03:08:00,,0835.5,4.98,0.00,22.0,21.2,00.0,31.1,23.6,16.3,0000.0,0005.33,0009.68,0004.81
2021-11-25 03:09:00,,0835.5,5.00,0.00,21.9,21.1,00.0,31.0,23.6,16.3,0000.0,0005.36,0010.50,0004.81
2021-11-25 03:10:00,,0835.5,5.01,0.00,21.9,21.1,00.0,31.0,23.6,16.3,0000.0,0005.36,0010.30,0004.82
2021-11-25 03:11:00,,0835.5,4.99,0.00,21.9,21.1,00.0,31.0,23.6,16.3,0000.0,0005.35,0009.93,0004.83
2021-11-25 03:12:00,,0835.5,5.00,0.00,21.9,21.1,00.0,31.0,23.6,16.3,0000.0,0005.35,0009.65,0004.85
2021-11-25 03:13:00,,0835.5,5.00,0.00,21.9,21.1,00.0,31.0,23.6,16.3,0000.0,0005.35,0009.52,0004.85
2021-11-25 03:14:00,,0835.6,5.00,0.00,21.9,21.1,00.0,31.0,23.5,16.3,0000.0,0005.37,0009.47,0004.86
2021-11-25 03:15:00,,0835.5,5.01,0.00,21.9,21.1,00.0,31.0,23.6,16.3,0000.0,0005.38,0009.36,0004.88
2021-11-25 03:16:00,,0835.5,5.00,0.00,21.8,21.1,00.0,31.0,23.5,16.3,0000.0,0005.39,0009.45,0004.89
2021-11-25 03:17:00,,0835.5,4.99,0.00,21.8,21.0,00.0,30.9,23.5,16.4,0000.0,0005.37,0009.43,0004.88
2021-11-25 03:18:00,,0835.5,5.01,0.00,21.8,21.1,00.0,30.9,23.5,16.4,0000.0,0005.36,0009.44,0004.87
2021-11-25 03:19:00,,0835.6,4.99,0.00,21.9,21.7,00.0,31.0,23.7,16.2,0000.0,0005.37,0009.59,0004.88
2021-11-25 03:20:00,,0835.6,5.01,0.00,22.0,22.5,00.0,31.0,23.9,16.1,0000.0,0005.37,0009.37,0004.88
2021-11-25 03:21:00,,0835.6,5.01,0.00,22.1,22.7,00.0,31.0,24.1,16.0,0000.0,0005.38,0009.31,0004.89
2021-11-25 03:22:00,,0835.6,4.99,0.00,22.1,22.5,00.0,31.0,24.0,15.8,0000.0,0005.40,0009.26,0004.89
2021-11-25 03:23:00,,0835.6,5.01,0.00,22.1,22.2,00.0,31.0,24.0,15.8,0000.0,0005.41,0009.31,0004.89
2021-11-25 03:24:00,,0835.7,5.00,0.00,22.1,22.0,00.0,31.1,23.9,15.7,0000.0,0005.44,0009.69,0004.89
2021-11-25 03:25:00,,0835.7,5.00,0.00,22.1,21.8,00.0,31.1,23.8,15.8,0000.0,0005.45,0010.85,0004.88
2021-11-25 03:26:00,,0835.7,5.00,0.00,22.0,21.7,00.0,31.1,23.7,15.7,0000.0,0005.46,0011.91,0004.89
2021-11-25 03:27:00,,0835.7,5.01,0.00,22.0,21.6,00.0,31.0,23.7,15.6,0000.0,0005.43,0011.87,0004.87
2021-11-25 03:28:00,,0835.7,4.99,0.00,22.0,21.4,00.0,31.0,23.7,15.5,0000.0,0005.43,0011.88,0004.86
2021-11-25 03:29:00,,0835.7,5.00,0.00,22.0,21.3,00.0,31.0,23.6,15.4,0000.0,0005.41,0012.02,0004.85
2021-11-25 03:30:00,,0835.7,5.00,0.00,21.9,21.2,00.0,31.0,23.6,15.3,0000.0,0005.38,0011.96,0004.81
2021-11-25 03:31:00,,0835.7,4.99,0.00,21.9,21.1,00.0,31.0,23.6,15.2,0000.0,0005.32,0011.38,0004.76
2021-11-25 03:32:00,,0835.7,5.01,0.00,21.8,21.1,00.0,31.0,23.5,15.1,0000.0,0005.28,0011.57,0004.72
2021-11-25 03:33:00,,0835.7,4.98,0.00,21.8,21.0,00.0,31.0,23.4,15.1,0000.0,0005.22,0011.74,0004.66
2021-11-25 03:34:00,,0835.7,5.00,0.00,21.8,20.9,00.0,31.0,23.4,15.1,0000.0,0005.14,0011.94,0004.61
2021-11-25 03:35:00,,0835.7,5.00,0.00,21.7,20.9,00.0,30.9,23.4,15.0,0000.0,0005.05,0011.42,0004.55
2021-11-25 03:36:00,,0835.7,5.01,0.00,21.7,20.8,00.0,30.9,23.3,15.0,0000.0,0004.98,0010.22,0004.49
2021-11-25 03:37:00,,0835.7,4.99,0.00,21.7,20.8,00.0,30.9,23.3,15.0,0000.0,0004.89,0008.97,0004.44
2021-11-25 03:38:00,,0835.7,5.00,0.00,21.7,20.8,00.0,30.9,23.3,15.0,0000.0,0004.86,0008.90,0004.41
2021-11-25 03:39:00,,0835.7,5.00,0.00,21.6,20.8,00.0,30.8,23.3,15.0,0000.0,0004.80,0008.82,0004.37
2021-11-25 03:40:00,,0835.6,5.01,0.00,21.6,20.7,00.0,30.8,23.2,15.0,0000.0,0004.76,0008.63,0004.34
2021-11-25 03:41:00,,0835.7,4.99,0.00,21.6,20.7,00.0,30.8,23.2,15.1,0000.0,0004.73,0008.37,0004.32
2021-11-25 03:42:00,,0835.7,5.01,0.00,21.5,20.6,00.0,30.8,23.1,15.1,0000.0,0004.70,0008.25,0004.31
2021-11-25 03:43:00,,0835.7,4.99,0.00,21.5,20.8,00.0,30.8,23.2,15.2,0000.0,0004.68,0007.99,0004.29
2021-11-25 03:44:00,,0835.7,5.00,0.00,21.6,21.6,00.0,30.8,23.4,15.1,0000.0,0004.68,0008.23,0004.30
2021-11-25 03:45:00,,0835.7,5.00,0.00,21.8,22.5,00.0,30.8,23.7,15.0,0000.0,0004.69,0008.30,0004.34
2021-11-25 03:46:00,,0835.8,4.99,0.00,21.9,22.8,00.0,30.8,23.9,14.9,0000.0,0004.71,0008.55,0004.38
2021-11-25 03:47:00,,0835.7,5.00,0.00,21.9,22.5,00.0,30.9,23.9,14.9,0000.0,0004.77,0009.26,0004.45
2021-11-25 03:48:00,,0835.7,5.00,0.00,21.9,22.3,00.0,30.9,23.8,15.0,0000.0,0004.85,0009.48,0004.53
2021-11-25 03:49:00,,0835.7,5.00,0.00,21.9,22.0,00.0,30.9,23.7,15.0,0000.0,0004.90,0009.47,0004.59
2021-11-25 03:50:00,,0835.8,5.00,0.00,21.9,21.9,00.0,30.9,23.7,14.9,0000.0,0004.96,0009.60,0004.64
2021-11-25 03:51:00,,0835.8,5.00,0.00,21.9,21.7,00.0,30.9,23.7,14.9,0000.0,0005.04,0009.70,0004.70
2021-11-25 03:52:00,,0835.8,5.00,0.00,21.9,21.6,00.0,30.9,23.6,15.0,0000.0,0005.11,0009.76,0004.78
2021-11-25 03:53:00,,0835.9,4.99,0.00,21.9,21.5,00.0,30.9,23.6,15.0,0000.0,0005.18,0009.70,0004.88
2021-11-25 03:54:00,,0835.9,5.01,0.00,21.8,21.4,00.0,30.9,23.6,15.1,0000.0,0005.25,0010.28,0004.99
2021-11-25 03:55:00,,0835.8,4.99,0.00,21.8,21.3,00.0,30.9,23.5,15.1,0000.0,0005.33,0010.08,0005.07
2021-11-25 03:56:00,,0835.9,5.01,0.00,21.8,21.2,00.0,30.9,23.5,15.1,0000.0,0005.38,0009.67,0005.12
2021-11-25 03:57:00,,0835.8,4.99,0.00,21.8,21.2,00.0,30.9,23.4,15.2,0000.0,0005.47,0009.61,0005.18
2021-11-25 03:58:00,,0835.9,5.01,0.00,21.7,21.1,00.0,30.9,23.4,15.3,0000.0,0005.53,0009.16,0005.20
2021-11-25 03:59:00,,0835.9,5.01,0.00,21.7,21.0,00.0,30.8,23.4,15.3,0000.0,0005.56,0009.05,0005.21
